Meridian, MS

8:32 PM CDT on October 13, 2019 (GMT -0500)
Key

Weather History for KMEI - August, 2019

Change the Weather History Date:

Sunday, August 25, 2019

  Actual Average Record
Temperature  
Mean Temperature 82 °F 80 °F  
Max Temperature 88 °F 91 °F 102 °F (2000)
Min Temperature 75 °F 69 °F 49 °F (1891)
Degree Days  
Heating Degree Days 0 0  
Month to date heating degree days 0 0  
Since 1 June heating degree days 0 0  
Since 1 July heating degree days 0 0  
Cooling Degree Days 16 15  
Month to date cooling degree days 475 389  
Year to date cooling degree days 1990 1536  
Since 1 June cooling degree days 1494 1253  
Growing Degree Days 32 (Base 50)    
Moisture  
Dew Point 74 °F    
Average Humidity 85    
Maximum Humidity 94    
Minimum Humidity 65    
Precipitation  
Precipitation 0.41 in 0.11 in 1.90 in (2008)
Month to date precipitation 3.79 3.34  
Year to date precipitation 42.37 38.31  
Sea Level Pressure  
Sea Level Pressure 29.93 in    
Wind  
Wind Speed 3 mph ()    
Max Wind Speed 21 mph    
Max Gust Speed 25 mph    
Visibility 9.2 miles    
Events Rain , Thunderstorm    
T = Trace of Precipitation, MM = Missing Value Source: Averaged Metar Reports

Daily Weather History Graph

Daily Weather History Graph

Search for Another Location

Airport or City:

Astronomy

Aug. 25, 2019 Rise Set
Actual Time 6:25 AM CDT 7:28 PM CDT
Civil Twilight 6:00 AM CDT 7:53 PM CDT
Nautical Twilight 5:30 AM CDT 8:23 PM CDT
Astronomical Twilight 4:59 AM CDT 8:54 PM CDT
Moon 1:10 AM CDT (8/25) 3:37 PM CDT (8/25)
Length of Visible Light 13h 53m
Length of Day
13h 02m
Waning Crescent, 29% of the Moon is Illuminated
Aug 25
Waning Crescent
Aug 30
New
Sep 5
First Quarter
Sep 13
Full
Sep 21
Last Quarter

Hourly Weather History & Observations

Time (CDT) Temp. Heat Index Dew Point Humidity Pressure Visibility Wind Dir Wind Speed Gust Speed Precip Events Conditions
12:58 AM 77.0 °F - 73.9 °F 90% 29.98 in 10.0 mi Calm Calm - N/A   Partly Cloudy
1:58 AM 77.0 °F - 73.9 °F 90% 29.96 in 10.0 mi Calm Calm - N/A   Clear
3:58 AM 77.0 °F - 73.9 °F 90% 29.94 in 10.0 mi NNW 3.5 mph - N/A   Clear
4:24 AM 75.9 °F - 73.9 °F 94% 29.95 in 10.0 mi Calm Calm - N/A   Scattered Clouds
4:58 AM 77.0 °F - 73.9 °F 90% 29.94 in 10.0 mi Calm Calm - N/A   Clear
5:58 AM 75.9 °F - 73.0 °F 91% 29.94 in 10.0 mi North 3.5 mph - N/A   Clear
6:54 AM 77.0 °F - 73.4 °F 89% 29.97 in 10.0 mi Calm Calm - N/A   Partly Cloudy
6:58 AM 77.0 °F - 73.0 °F 88% 29.96 in 10.0 mi NNW 3.5 mph - N/A   Partly Cloudy
7:58 AM 77.0 °F - 73.9 °F 90% 29.96 in 10.0 mi Variable 3.5 mph - N/A   Scattered Clouds
8:58 AM 80.1 °F 84.5 °F 73.9 °F 81% 29.96 in 10.0 mi NE 4.6 mph - N/A   Clear
9:58 AM 84.0 °F 91.9 °F 75.0 °F 74% 29.96 in 10.0 mi Variable 3.5 mph - N/A   Clear
10:58 AM 86.0 °F 96.0 °F 75.9 °F 72% 29.96 in 10.0 mi Calm Calm - N/A   Mostly Cloudy
11:58 AM 88.0 °F 98.5 °F 75.9 °F 67% 29.94 in 10.0 mi Variable 3.5 mph - N/A   Mostly Cloudy
12:23 PM 87.1 °F 97.3 °F 75.9 °F 69% 29.95 in 10.0 mi North - - N/A Thunderstorm Thunderstorm
12:33 PM 82.9 °F 87.0 °F 70.0 °F 65% 29.94 in 10.0 mi ESE 9.2 mph - N/A   Overcast
12:56 PM 80.6 °F 85.4 °F 73.4 °F 79% 29.93 in 10.0 mi ESE 3.5 mph - 0.02 in Rain , Thunderstorm Light Rain
12:58 PM 81.0 °F 86.2 °F 73.9 °F 79% 29.92 in 10.0 mi Calm Calm - 0.02 in Rain , Thunderstorm Light Rain
1:17 PM 79.0 °F - 75.0 °F 88% 29.94 in 8.0 mi SSW 15.0 mph 21.9 mph 0.02 in Rain , Thunderstorm Light Thunderstorms and Rain
1:24 PM 78.1 °F - 75.0 °F 90% 29.94 in 1.0 mi South 19.6 mph 25.3 mph 0.03 in Rain , Thunderstorm Heavy Thunderstorms and Rain
1:28 PM 77.0 °F - 73.9 °F 90% 29.94 in 1.0 mi SSW 11.5 mph 25.3 mph 0.06 in Rain , Thunderstorm Heavy Rain
1:43 PM 77.0 °F - 73.9 °F 90% 29.94 in 2.5 mi Calm Calm - 0.28 in Rain , Thunderstorm Light Thunderstorms and Rain
1:50 PM 78.1 °F - 73.9 °F 87% 29.94 in 8.0 mi Calm Calm - 0.28 in Rain , Thunderstorm Light Thunderstorms and Rain
1:58 PM 78.1 °F - 73.0 °F 84% 29.93 in 10.0 mi South 8.1 mph - 0.28 in Thunderstorm Thunderstorm
2:05 PM 78.1 °F - 73.9 °F 87% 29.94 in 10.0 mi South 6.9 mph - N/A Thunderstorm Mostly Cloudy
2:34 PM 80.1 °F 85.1 °F 75.0 °F 85% 29.92 in 10.0 mi ENE 4.6 mph - 0.03 in Thunderstorm Thunderstorm
2:54 PM 80.6 °F 86.2 °F 75.2 °F 84% 29.91 in 10.0 mi East 5.8 mph - 0.03 in   Clear
2:58 PM 81.0 °F 86.7 °F 75.0 °F 82% 29.89 in 10.0 mi ENE 6.9 mph - 0.03 in   Clear
3:58 PM 82.9 °F 90.2 °F 75.0 °F 77% 29.91 in 10.0 mi SSE 11.5 mph - N/A   Partly Cloudy
4:58 PM 75.9 °F - 72.0 °F 87% 29.89 in 10.0 mi SSW 5.8 mph - 0.00 in Rain Light Rain
5:58 PM 75.9 °F - 73.0 °F 91% 29.91 in 9.0 mi Calm Calm - 0.00 in Rain Light Rain
6:58 PM 75.9 °F - 73.0 °F 91% 29.91 in 10.0 mi Calm Calm - 0.03 in   Scattered Clouds
7:58 PM 75.9 °F - 73.0 °F 91% 29.91 in 10.0 mi South 5.8 mph - 0.01 in Rain Light Rain
8:58 PM 75.9 °F - 72.0 °F 87% 29.92 in 10.0 mi Calm Calm - 0.00 in   Mostly Cloudy
9:58 PM 75.9 °F - 72.0 °F 87% 29.92 in 10.0 mi Calm Calm - N/A   Mostly Cloudy
10:58 PM 75.9 °F - 72.0 °F 87% 29.93 in 10.0 mi SE 4.6 mph - 0.01 in Rain Light Rain
11:58 PM 75.9 °F - 73.0 °F 91% 29.91 in 10.0 mi SSE 4.6 mph - 0.02 in Rain Light Rain